TIGER10 KFLL-TNCM

Flight info

Callsign TIGER10
Flight time N/A
Altitude 41000
Route SNAPR2 SUMAC Y421 HAGIT Y290 SLUGO
Aircraft B737/M-SDE2E3FGHIRWXY/LB1

Departure

Time N/A
Airport Fort Lauderdale Hollywood International Airport (KFLL)

Arrival

Time 2026-05-04 22:34
Airport Princess Juliana International Airport (TNCM)
Time Latitude Longitude Altitude Speed Heading
2026-05-04 21:39 20.70785 -69.67690 40966 ft 498 kts 127°
2026-05-04 21:40 20.68802 -69.64641 40966 ft 497 kts 127°
2026-05-04 21:40 20.64883 -69.58618 40966 ft 497 kts 127°
2026-05-04 21:41 20.60936 -69.52560 40966 ft 498 kts 127°
2026-05-04 21:41 20.56983 -69.46497 40966 ft 498 kts 127°
2026-05-04 21:42 20.53041 -69.40459 40966 ft 498 kts 127°
2026-05-04 21:42 20.49082 -69.34402 40966 ft 497 kts 127°
2026-05-04 21:43 20.45154 -69.28397 40966 ft 496 kts 127°
2026-05-04 21:43 20.41192 -69.22348 40966 ft 496 kts 127°
2026-05-04 21:44 20.37243 -69.16324 40966 ft 497 kts 127°
2026-05-04 21:44 20.33284 -69.10291 40967 ft 496 kts 127°
2026-05-04 21:45 20.29355 -69.04311 40973 ft 495 kts 127°
2026-05-04 21:45 20.25406 -68.98304 40980 ft 495 kts 127°
2026-05-04 21:46 20.21457 -68.92305 40987 ft 495 kts 127°
2026-05-04 21:46 20.17498 -68.86298 40993 ft 494 kts 127°
2026-05-04 21:47 20.13554 -68.80318 40993 ft 494 kts 127°
2026-05-04 21:47 20.09619 -68.74360 40993 ft 495 kts 127°
2026-05-04 21:48 20.05715 -68.68332 40993 ft 494 kts 126°
2026-05-04 21:48 20.02003 -68.62241 40993 ft 494 kts 125°
2026-05-04 21:49 19.98223 -68.56123 40993 ft 493 kts 125°
2026-05-04 21:49 19.94485 -68.50089 40993 ft 491 kts 125°
2026-05-04 21:50 19.90719 -68.44010 40993 ft 492 kts 125°
2026-05-04 21:50 19.86957 -68.37952 40993 ft 492 kts 125°
2026-05-04 21:51 19.83196 -68.31904 40993 ft 492 kts 126°
2026-05-04 21:51 19.79445 -68.25875 40993 ft 492 kts 126°
2026-05-04 21:52 19.75683 -68.19838 40993 ft 492 kts 126°
2026-05-04 21:52 19.71918 -68.13801 40995 ft 492 kts 126°
2026-05-04 21:53 19.68146 -68.07758 41003 ft 492 kts 126°
2026-05-04 21:53 19.64379 -68.01730 41012 ft 492 kts 126°
2026-05-04 21:54 19.60631 -67.95739 41020 ft 491 kts 126°
2026-05-04 21:54 19.56858 -67.89717 41027 ft 491 kts 126°
2026-05-04 21:55 19.53083 -67.83693 41027 ft 491 kts 125°
2026-05-04 21:55 19.49333 -67.77716 41027 ft 490 kts 125°
2026-05-04 21:56 19.45552 -67.71697 41027 ft 490 kts 125°
2026-05-04 21:56 19.41781 -67.65696 41027 ft 489 kts 125°
2026-05-04 21:57 19.38093 -67.59835 41027 ft 489 kts 125°
2026-05-04 21:57 19.34334 -67.53866 41027 ft 488 kts 125°
2026-05-04 21:58 19.30566 -67.47888 41027 ft 488 kts 125°
2026-05-04 21:58 19.26828 -67.41965 41027 ft 488 kts 125°
2026-05-04 21:59 19.23058 -67.35995 41027 ft 487 kts 125°
2026-05-04 21:59 19.19296 -67.30046 41027 ft 487 kts 125°
2026-05-04 22:00 19.15533 -67.24101 41027 ft 486 kts 125°
2026-05-04 22:00 19.11800 -67.18209 41027 ft 486 kts 125°
2026-05-04 22:01 19.08042 -67.12282 41027 ft 486 kts 125°
2026-05-04 22:01 19.04286 -67.06364 41027 ft 486 kts 125°
2026-05-04 22:02 19.00525 -67.00444 41027 ft 486 kts 125°
2026-05-04 22:02 18.95191 -66.92056 41027 ft 486 kts 125°
2026-05-04 22:03 18.88550 -66.81631 41027 ft 485 kts 125°
2026-05-04 22:03 18.81925 -66.71249 41027 ft 484 kts 125°
2026-05-04 22:04 18.76156 -66.60575 41024 ft 485 kts 104°
2026-05-04 22:04 18.75632 -66.54308 41032 ft 485 kts 90°
2026-05-04 22:04 18.75330 -66.47999 41027 ft 485 kts 94°
2026-05-04 22:05 18.74245 -66.35329 41027 ft 484 kts 93°
2026-05-04 22:05 18.73400 -66.22797 41027 ft 482 kts 94°
2026-05-04 22:06 18.72520 -66.10141 41037 ft 482 kts 94°
2026-05-04 22:06 18.71651 -65.97533 41046 ft 481 kts 94°
2026-05-04 22:07 18.70782 -65.85021 41046 ft 480 kts 94°
2026-05-04 22:07 18.69916 -65.72674 41046 ft 480 kts 94°
2026-05-04 22:08 18.69025 -65.60077 41047 ft 481 kts 94°
2026-05-04 22:08 18.68151 -65.47842 41047 ft 480 kts 93°
2026-05-04 22:09 18.67228 -65.35622 41048 ft 481 kts 96°
2026-05-04 22:09 18.65170 -65.23376 41049 ft 481 kts 99°
2026-05-04 22:10 18.63189 -65.11056 41050 ft 481 kts 99°
2026-05-04 22:10 18.61191 -64.98970 41047 ft 481 kts 99°
2026-05-04 22:11 18.59147 -64.86548 40642 ft 475 kts 99°
2026-05-04 22:11 18.58158 -64.80574 39458 ft 473 kts 99°
2026-05-04 22:11 18.57149 -64.74478 38079 ft 473 kts 99°
2026-05-04 22:11 18.56132 -64.68346 36652 ft 473 kts 99°
2026-05-04 22:12 18.55137 -64.62369 35135 ft 475 kts 99°
2026-05-04 22:12 18.54096 -64.56124 33388 ft 480 kts 99°
2026-05-04 22:12 18.53270 -64.51179 31940 ft 483 kts 99°
2026-05-04 22:12 18.52688 -64.47698 30870 ft 486 kts 99°
2026-05-04 22:13 18.52098 -64.44174 29774 ft 488 kts 99°
2026-05-04 22:13 18.51514 -64.40688 28666 ft 490 kts 99°
2026-05-04 22:13 18.50925 -64.37171 27535 ft 490 kts 99°
2026-05-04 22:13 18.50337 -64.33669 26417 ft 490 kts 99°
2026-05-04 22:14 18.49744 -64.30141 25537 ft 483 kts 100°
2026-05-04 22:14 18.49169 -64.26726 24749 ft 475 kts 100°
2026-05-04 22:14 18.48596 -64.23334 23964 ft 467 kts 99°
2026-05-04 22:14 18.48035 -64.20017 23115 ft 462 kts 100°
2026-05-04 22:15 18.47477 -64.16710 22272 ft 456 kts 100°
2026-05-04 22:15 18.46924 -64.13443 21437 ft 450 kts 100°
2026-05-04 22:15 18.46380 -64.10229 20604 ft 445 kts 101°
2026-05-04 22:15 18.45846 -64.07074 19720 ft 441 kts 101°
2026-05-04 22:16 18.45309 -64.03899 18761 ft 439 kts 102°
2026-05-04 22:16 18.44772 -64.00734 17746 ft 439 kts 102°
2026-05-04 22:16 18.44242 -63.97620 16831 ft 436 kts 101°
2026-05-04 22:16 18.43713 -63.94527 16025 ft 431 kts 100°
2026-05-04 22:17 18.43182 -63.91410 15299 ft 424 kts 101°
2026-05-04 22:17 18.42670 -63.88412 14575 ft 418 kts 101°
2026-05-04 22:17 18.42161 -63.85430 13820 ft 412 kts 101°
2026-05-04 22:17 18.41657 -63.82485 13088 ft 406 kts 101°
2026-05-04 22:18 18.41161 -63.79586 12331 ft 401 kts 101°
2026-05-04 22:18 18.40672 -63.76731 11532 ft 397 kts 101°
2026-05-04 22:18 18.40190 -63.73914 11089 ft 383 kts 101°
2026-05-04 22:18 18.39826 -63.71787 10949 ft 367 kts 101°
2026-05-04 22:19 18.39548 -63.70162 10832 ft 356 kts 101°
2026-05-04 22:19 18.39087 -63.67651 10650 ft 339 kts 105°
2026-05-04 22:19 18.38183 -63.65461 10482 ft 323 kts 122°
2026-05-04 22:19 18.36938 -63.63544 10317 ft 308 kts 124°
2026-05-04 22:20 18.35770 -63.61724 10091 ft 298 kts 123°
2026-05-04 22:20 18.34631 -63.59917 9755 ft 292 kts 123°
2026-05-04 22:20 18.33521 -63.58176 9391 ft 288 kts 124°
2026-05-04 22:20 18.32414 -63.56443 9029 ft 279 kts 123°
2026-05-04 22:21 18.31350 -63.54775 8682 ft 275 kts 123°
2026-05-04 22:21 18.30286 -63.53110 8335 ft 271 kts 123°
2026-05-04 22:21 18.29236 -63.51467 7992 ft 267 kts 123°
2026-05-04 22:21 18.28216 -63.49872 7657 ft 264 kts 123°
2026-05-04 22:22 18.27196 -63.48278 7323 ft 260 kts 123°
2026-05-04 22:22 18.26201 -63.46723 6996 ft 257 kts 123°
2026-05-04 22:22 18.25208 -63.45171 6671 ft 253 kts 123°
2026-05-04 22:22 18.24228 -63.43641 6350 ft 250 kts 123°
2026-05-04 22:23 18.23975 -63.43246 6267 ft 249 kts 123°
2026-05-04 22:23 18.23225 -63.42075 5994 ft 249 kts 123°
2026-05-04 22:23 18.22255 -63.40560 5652 ft 248 kts 123°
2026-05-04 22:23 18.21303 -63.39073 5333 ft 246 kts 123°
2026-05-04 22:24 18.20363 -63.37606 5032 ft 231 kts 123°
2026-05-04 22:24 18.19510 -63.36276 4796 ft 211 kts 123°
2026-05-04 22:24 18.18716 -63.35037 4717 ft 197 kts 123°
2026-05-04 22:24 18.17950 -63.33843 4653 ft 200 kts 123°
2026-05-04 22:25 18.17165 -63.32616 4580 ft 201 kts 123°
2026-05-04 22:25 18.16420 -63.31457 4504 ft 183 kts 123°
2026-05-04 22:25 18.15745 -63.30404 4452 ft 162 kts 123°
2026-05-04 22:25 18.15122 -63.29433 4358 ft 159 kts 123°
2026-05-04 22:26 18.14500 -63.28463 4083 ft 159 kts 123°
2026-05-04 22:26 18.13876 -63.27519 3819 ft 159 kts 129°
2026-05-04 22:26 18.12908 -63.26969 3512 ft 168 kts 174°
2026-05-04 22:26 18.11805 -63.27396 3251 ft 176 kts 208°
2026-05-04 22:27 18.10727 -63.27985 2984 ft 172 kts 193°
2026-05-04 22:27 18.09599 -63.28368 2736 ft 171 kts 192°
2026-05-04 22:27 18.08453 -63.28705 2490 ft 170 kts 188°
2026-05-04 22:27 18.07301 -63.28971 2294 ft 165 kts 186°
2026-05-04 22:28 18.06178 -63.29164 2311 ft 168 kts 183°
2026-05-04 22:28 18.05017 -63.29301 2289 ft 166 kts 179°
2026-05-04 22:28 18.03874 -63.29344 2047 ft 163 kts 175°
2026-05-04 22:28 18.02743 -63.29306 1749 ft 163 kts 169°
2026-05-04 22:29 18.01783 -63.28807 1588 ft 153 kts 123°
2026-05-04 22:29 18.01605 -63.27719 1607 ft 159 kts 82°
2026-05-04 22:29 18.01891 -63.26585 1596 ft 155 kts 84°
2026-05-04 22:29 18.01975 -63.25500 1604 ft 149 kts 86°
2026-05-04 22:30 18.02108 -63.24414 1601 ft 148 kts 84°
2026-05-04 22:30 18.02251 -63.23345 1608 ft 142 kts 84°
2026-05-04 22:30 18.02386 -63.22357 1600 ft 137 kts 84°
2026-05-04 22:30 18.02486 -63.21632 1597 ft 137 kts 84°
2026-05-04 22:31 18.02595 -63.20847 1594 ft 137 kts 84°
2026-05-04 22:31 18.02738 -63.19856 1522 ft 139 kts 83°
2026-05-04 22:31 18.02905 -63.18840 1316 ft 142 kts 82°
2026-05-04 22:31 18.03062 -63.17862 1212 ft 127 kts 83°
2026-05-04 22:32 18.03210 -63.16953 1111 ft 125 kts 82°
2026-05-04 22:32 18.03358 -63.16048 951 ft 125 kts 82°
2026-05-04 22:32 18.03494 -63.15161 674 ft 122 kts 84°
2026-05-04 22:32 18.03610 -63.14278 487 ft 119 kts 84°
2026-05-04 22:33 18.03724 -63.13431 342 ft 118 kts 84°
2026-05-04 22:33 18.03851 -63.12573 196 ft 118 kts 83°
2026-05-04 22:33 18.03975 -63.11717 41 ft 117 kts 84°
2026-05-04 22:33 18.04079 -63.10974 19 ft 72 kts 81°
2026-05-04 22:34 18.04126 -63.10660 17 ft 32 kts 81°
2026-05-04 22:34 18.04155 -63.10460 19 ft 23 kts 81°
2026-05-04 22:34 18.04177 -63.10303 18 ft 21 kts 80°
2026-05-04 22:34 18.04207 -63.10091 16 ft 33 kts 81°
2026-05-04 22:35 18.04250 -63.09917 16 ft 14 kts 44°
2026-05-04 22:35 18.04285 -63.09840 16 ft 11 kts 133°
2026-05-04 22:35 18.04236 -63.09884 16 ft 14 kts 263°
2026-05-04 22:35 18.04218 -63.10017 16 ft 21 kts 261°
2026-05-04 22:36 18.04191 -63.10198 16 ft 26 kts 262°
2026-05-04 22:36 18.04161 -63.10407 19 ft 33 kts 261°
2026-05-04 22:36 18.04124 -63.10669 17 ft 37 kts 262°
2026-05-04 22:36 18.04088 -63.10932 19 ft 32 kts 268°
2026-05-04 22:37 18.04160 -63.10999 19 ft 10 kts 321°
2026-05-04 22:37 18.04161 -63.11069 19 ft 9 kts 261°
2026-05-04 22:37 18.04152 -63.11135 19 ft 9 kts 262°
2026-05-04 22:37 18.04141 -63.11213 19 ft 10 kts 261°
2026-05-04 22:38 18.04139 -63.11285 19 ft 9 kts 307°
2026-05-04 22:38 18.04204 -63.11300 17 ft 7 kts 351°
2026-05-04 22:38 18.04236 -63.11333 17 ft 6 kts 289°
2026-05-04 22:38 18.04232 -63.11380 16 ft 6 kts 261°
2026-05-04 22:39 18.04226 -63.11422 16 ft 5 kts 261°
2026-05-04 22:39 18.04222 -63.11460 16 ft 4 kts 277°
2026-05-04 22:39 18.04246 -63.11482 16 ft 5 kts 347°
2026-05-04 22:39 18.04279 -63.11488 16 ft 4 kts 351°
2026-05-04 22:40 18.04303 -63.11492 16 ft 0 kts 351°